Regional Weather Roundup
Issued by NWS

Home | Current Version | Previous Version | Graphics & Text | Print | Product List | Glossary On
Versions: 1 2 3 4 5 6 7 8 9 10 11 12 13 14 15 16 17 18 19 20 21 22 23 24 25 26 27 28 29 30 31 32 33 34 35 36 37 38 39 40 41 42 43 44 45 46 47 48 49 50
000
ASUS43 KDMX 210207
RWRIA

WEATHER ROUNDUP FOR IOWA
NATIONAL WEATHER SERVICE DES MOINES IA
900 PM CDT MON APR 20 2015

NOTE: "FAIR" INDICATES FEW OR NO CLOUDS BELOW 12,000 FEET WITH NO
SIGNIFICANT WEATHER AND/OR OBSTRUCTIONS TO VISIBILITY.

* - THESE STATIONS ARE NOT NWS STATIONS...THUS NOT UNDER NWS
QUALITY CONTROL.  THEY ALSO DO NOT REPORT WEATHER SUCH
AS PRECIPITATION OR FOG.

IAZ001>003-012>014-020>022-031>034-043>046-210300-
   NORTHWEST IOWA

CITY           SKY/WX    TMP DP  RH WIND       PRES   REMARKS
CARROLL *      MOCLDY    45  18  33 NW13      29.71R
CHEROKEE *     CLEAR     44  26  49 NW5       29.70S
DENISON *      PTCLDY    46  14  27 NW8       29.71R
LE MARS *      CLEAR     46  10  23 NW9       29.73R
ORANGE CITY *  CLEAR     43  16  33 NW14      29.70R
SHELDON *      CLEAR     41  25  52 NW8       29.68R
SIOUX CITY     CLEAR     50   9  19 NW13      29.73R
SPENCER        CLEAR     38  27  64 W8        29.67S WCI  32
STORM LAKE *   CLEAR     43  27  52 NW8       29.70S
$$

IAZ055>058-069>071-079>083-090>094-210300-
   SOUTHWEST IOWA

CITY           SKY/WX    TMP DP  RH WIND       PRES   REMARKS
ATLANTIC *     MOCLDY    48  16  27 W10       29.75R
AUDUBON *      CLEAR     45  16  31 W6        29.74R
CLARINDA *     PTCLDY    48  25  40 W7        29.80R
COUNCIL BLFS * MOCLDY    50  19  29 NW10G16   29.77R
CRESTON *      CLEAR     45  21  39 W12       29.75R
HARLAN  *      CLEAR     45  21  39 W12       29.78R
LAMONI         CLEAR     47  26  44 W10       29.76R
RED OAK *      PTCLDY    48  25  40 NW7       29.78R
SHENANDOAH *   CLEAR     46  28  49 W8        29.80R
$$

IAZ047>049-059>061-072>074-084-210300-
   CENTRAL IOWA

CITY           SKY/WX    TMP DP  RH WIND       PRES   REMARKS
AMES           CLEAR     44  28  53 NW6       29.68R
ANKENY *       CLEAR     46  21  36 W9        29.70R
CHARITON *     PTCLDY    46  23  39 W7        29.73R
DES MOINES     CLEAR     48  18  30 W8        29.71R
GRINNELL*      CLEAR     45  30  57 NW8       29.69R
KNOXVILLE *    CLEAR     45  23  42 W8        29.70R
MARSHALLTOWN   CLEAR     41  35  79 W3        29.67R
PELLA *        CLEAR     47  24  40 W10       29.71R
PERRY *          N/A     45  25  45 W10       29.70S
$$

IAZ004>006-015-016-023>025-035-036-210300-
   NORTH CENTRAL IOWA

CITY           SKY/WX    TMP DP  RH WIND       PRES   REMARKS
ALGONA *       MOCLDY    41  28  60 NW10      29.67S
CLARION *      CLOUDY    41  34  75 NW9G15    29.68R
ESTHERVILLE    MOCLDY    39  28  64 NW9       29.66S WCI  33
FORT DODGE *   PTCLDY    43  28  56 N7        29.70R
MASON CITY     PTCLDY    39  29  67 W16       29.65S WCI  30
FOREST CITY *    N/A     37  30  75 NW17G23   29.64S WCI  28
IOWA FALLS *     N/A     41  34  75 NW8       29.69R
$$

IAZ007>011-017>019-026>030-037>042-050>054-066-210300-
   NORTHEAST IOWA

CITY           SKY/WX    TMP DP  RH WIND       PRES   REMARKS
CEDAR RAPIDS   CLEAR     41  35  79 NW12      29.67R
CHARLES CITY * CLOUDY    41  32  70 W13G20    29.63S
CLINTON *      PTCLDY    37  34  87 W8        29.68R WCI  31
DECORAH *      CLOUDY    39  32  75 W12       29.59R WCI  32
DUBUQUE        CLOUDY    41  31  67 W16       29.63R
MONTICELLO *   CLOUDY    43  34  70 W14G21    29.65R
OELWEIN *      MOCLDY    41  30  65 W18       29.64S
WATERLOO       PTCLDY    40  32  73 W7        29.65S
$$

IAZ064-065-067-068-078-210300-
   EAST CENTRAL IOWA

CITY           SKY/WX    TMP DP  RH WIND       PRES   REMARKS
DAVENPORT      PTCLDY    39  35  86 SW7       29.66S WCI  34
IOWA CITY      CLEAR     44  32  62 NW6       29.68R
MT. PLEASANT * PTCLDY    43  29  58 SW9       29.70S
MUSCATINE *    CLEAR     46  28  49 SW9       29.67S
QUAD CITIES    PTCLDY    40  34  79 S3        29.66S
$$

IAZ062-063-075>077-085>089-095>099-210300-
   SOUTHEAST IOWA

CITY           SKY/WX    TMP DP  RH WIND       PRES   REMARKS
BURLINGTON     PTCLDY    44  32  62 SW7       29.70S
FAIRFIELD *    CLEAR     45  27  49 W7        29.70S
FORT MADISON * PTCLDY    46  28  49 SW8       29.72S
KEOKUK *       CLEAR     46  30  53 SW8       29.73R
OSKALOOSA *      N/A     41  28  58 W8        29.70S
CENTERVILLE *    N/A     45  28  53 W8        29.75R
OTTUMWA        CLEAR     44  23  43 W7        29.70R
WASHINGTON *   CLEAR     45  30  57 SW9       29.68S
$$

ABBREVIATIONS USED IN REMARKS
   TC - TEMPERATURES IN CELSIUS
  WCI - WIND CHILL INDEX
   HX - HEAT INDEX
  VSB - VISIBILITY
$$



USA.gov is the U.S. government's official web portal to all federal, state and local government web resources and services.